Terminal Aerodrome Forecast
Issued by NWS Salt Lake City, UT

Home | Current Version | Previous Version | Text Only | Print | Product List | Glossary On
Versions: 1 2 3 4 5 6 7 8 9 10 11 12 13 14 15 16 17 18 19 20 21 22 23 24 25 26 27 28 29 30 31 32 33 34 35 36 37 38 39 40 41 42 43 44 45 46 47 48 49 50
000
FTUS45 KSLC 060143 AAC
TAFSLC
TAF AMD
KSLC 060143Z 0602/0706 33005KT P6SM VCSH SCT080 BKN110
     FM060150 32020G30KT P6SM VCSH SCT050 BKN080
     FM060300 33010KT 6SM -SHRA VCTS SCT030CB BKN050
     FM060400 16007KT P6SM SCT070 BKN110
     FM061800 32009KT P6SM VCSH SCT060 BKN090=

USA.gov is the U.S. government's official web portal to all federal, state and local government web resources and services.